Location: Newark
(40.4333°N, 3.7000°W)
Time: 04:10:12
(UTC+00:00)

Tiangong 2 - Visible Passes

Search period start: 23 March 2019 00:00
Search period end: 02 April 2019 00:00
Orbit: 380 x 390 km, 42.8° (Epoch: 22 March)

Date Brightness Start Highest point End Pass type
(mag) Time Alt. Az. Time Alt. Az. Time Alt. Az.
23 Mar 4.4 03:46:34 11° ESE 03:46:34 11° ESE 03:46:40 10° ESE visible
23 Mar 2.5 05:18:49 18° WSW 05:19:59 22° SSW 05:22:32 10° SSE visible
24 Mar 3.3 04:22:34 18° SSE 04:22:34 18° SSE 04:23:36 10° SE visible
25 Mar 3.5 04:58:45 11° SSW 04:58:45 11° SSW 04:59:03 10° S visible
29 Mar 4.1 20:43:38 10° SW 20:43:42 10° SW 20:43:42 10° SW visible
30 Mar 2.0 19:44:30 10° SSW 19:47:15 28° SSE 19:47:40 27° SE visible
31 Mar 1.5 20:21:09 10° WSW 20:23:43 55° SW 20:23:43 55° SW visible
01 Apr 1.4 19:21:44 10° SW 19:24:46 48° SSE 19:27:20 13° E visible
01 Apr 3.7 20:58:24 10° W 20:59:34 20° W 20:59:34 20° W visible
